Regional Weather Roundup
Issued by NWS

Home | Current Version | Previous Version | Graphics & Text | Print | Product List | Glossary Off
Versions: 1 2 3 4 5 6 7 8 9 10 11 12 13 14 15 16 17 18 19 20 21 22 23 24 25 26 27 28 29 30 31 32 33 34 35 36 37 38 39 40 41 42 43 44 45 46 47 48 49 50

000
ASUS43 KDMX 312207
RWRIA

WEATHER ROUNDUP FOR IOWA
NATIONAL WEATHER SERVICE DES MOINES IA
500 PM CDT MON AUG 31 2015

NOTE: "FAIR" INDICATES FEW OR NO CLOUDS BELOW 12,000 FEET WITH NO
SIGNIFICANT WEATHER AND/OR OBSTRUCTIONS TO VISIBILITY.

* - THESE STATIONS ARE NOT NWS STATIONS...THUS NOT UNDER NWS
QUALITY CONTROL.  THEY ALSO DO NOT REPORT WEATHER SUCH
AS PRECIPITATION OR FOG.

IAZ001>003-012>014-020>022-031>034-043>046-312300-
   NORTHWEST IOWA

CITY           SKY/WX    TMP DP  RH WIND       PRES   REMARKS
CARROLL *      MOSUNNY   82  72  69 S8G15     29.92F HX  87
CHEROKEE *     MOSUNNY   81  70  69 S10       29.91S HX  84
DENISON *      MOSUNNY   81  68  65 S10       29.91S HX  83
LE MARS *      SUNNY     82  70  65 S15       29.90R HX  86
ORANGE CITY *  SUNNY     81  70  69 S14       29.90S HX  84
SHELDON *      SUNNY     81  70  69 S15       29.89S HX  84
SIOUX CITY     SUNNY     84  69  60 S13       29.89S HX  88
SPENCER        PTSUNNY   83  67  58 S14G21    29.91S HX  85
STORM LAKE *   MOSUNNY   79  68  69 S13G21    29.93S HX  81
$$

IAZ055>058-069>071-079>083-090>094-312300-
   SOUTHWEST IOWA

CITY           SKY/WX    TMP DP  RH WIND       PRES   REMARKS
ATLANTIC *     MOSUNNY   82  68  61 S10       29.94R HX  85
AUDUBON *      SUNNY     82  70  65 SW8       29.95S HX  86
CLARINDA *     SUNNY     86  72  62 S10       29.94S HX  92
COUNCIL BLFS * SUNNY     84  66  54 S13G20    29.92F HX  86
CRESTON *      MOSUNNY   84  72  65 S12       29.96S HX  89
LAMONI         SUNNY     86  71  60 S12       29.95F HX  91
RED OAK *      SUNNY     84  70  61 S8        29.93S HX  88
SHENANDOAH *   SUNNY     86  68  54 S8        29.93S HX  89
$$

IAZ047>049-059>061-072>074-084-312300-
   CENTRAL IOWA

CITY           SKY/WX    TMP DP  RH WIND       PRES   REMARKS
AMES           MOSUNNY   84  71  65 S9        29.93F HX  89
ANKENY *       PTSUNNY   86  73  66 S6        29.92F HX  93
CHARITON *     MOSUNNY   86  70  58 S10G16    29.95S HX  90
DES MOINES     MOSUNNY   87  70  56 S9        29.92F HX  92
GRINNELL*      MOSUNNY   86  72  62 S7        29.96S HX  92
KNOXVILLE *    SUNNY     86  70  58 S12       29.93S HX  90
MARSHALLTOWN   MOSUNNY   85  72  65 S12       29.94S HX  91
PELLA *        SUNNY     88  73  62 S9        29.95S HX  96
PERRY *          N/A     82  72  69 SW5       29.94R HX  87
$$

IAZ004>006-015-016-023>025-035-036-312300-
   NORTH CENTRAL IOWA

CITY           SKY/WX    TMP DP  RH WIND       PRES   REMARKS
ALGONA *       MOSUNNY   82  72  69 S12       29.92S HX  87
CLARION *      SUNNY     82  72  69 S13       29.93F HX  87
ESTHERVILLE    SUNNY     81  69  67 S15       29.91S HX  84
FORT DODGE *   SUNNY     84  70  61 S15       29.93F HX  88
MASON CITY     SUNNY     84  71  65 S14       29.94F HX  89
FOREST CITY *  SUNNY     81  68  65 S14       29.93S HX  83
IOWA FALLS *     N/A     84  73  70 S8        29.96S HX  91
$$

IAZ007>011-017>019-026>030-037>042-050>054-066-312300-
   NORTHEAST IOWA

CITY           SKY/WX    TMP DP  RH WIND       PRES   REMARKS
CEDAR RAPIDS   SUNNY     84  75  74 S6        29.96F HX  92
CHARLES CITY * MOSUNNY   82  75  78 S10       29.96F HX  89
CLINTON *      SUNNY     84  72  65 S8        30.01F HX  89
DECORAH *      MOSUNNY   82  72  69 S8        29.96F HX  87
DUBUQUE        SUNNY     82  70  66 S9        30.01S HX  86
MONTICELLO *   MOSUNNY   84  73  70 SE7       29.98S HX  91
OELWEIN *      SUNNY     82  73  74 S8G16     29.98S HX  88
WATERLOO       PTSUNNY   84  72  67 S12       29.94F HX  89
$$

IAZ064-065-067-068-078-312300-
   EAST CENTRAL IOWA

CITY           SKY/WX    TMP DP  RH WIND       PRES   REMARKS
DAVENPORT      MOSUNNY   85  72  65 S9        29.99S HX  91
IOWA CITY      MOSUNNY   86  73  65 SE8       29.97F HX  93
MT. PLEASANT * SUNNY     90  68  48 SE6       29.96F HX  93
MUSCATINE *    MOSUNNY   90  70  51 S10       29.96F HX  95
QUAD CITIES    MOSUNNY   88  71  57 S9        29.97F HX  94
$$

IAZ062-063-075>077-085>089-095>099-312300-
   SOUTHEAST IOWA

CITY           SKY/WX    TMP DP  RH WIND       PRES   REMARKS
BURLINGTON     MOSUNNY   88  72  58 S6        29.97F HX  94
FAIRFIELD *    SUNNY     90  70  51 S10       29.96S HX  95
FORT MADISON * SUNNY     88  72  58 S6        29.98S HX  94
KEOKUK *       MOSUNNY   90  72  55 S7        29.96S HX  96
OSKALOOSA *      N/A     88  70  55 S9        29.95F HX  92
CENTERVILLE *  SUNNY     84  72  65 S7        29.97S HX  89
OTTUMWA        MOSUNNY   87  72  60 S8        29.93F HX  93
WASHINGTON *     N/A    N/A N/A N/A MISG        N/A
$$

ABBREVIATIONS USED IN REMARKS
   TC - TEMPERATURES IN CELSIUS
  WCI - WIND CHILL INDEX
   HX - HEAT INDEX
  VSB - VISIBILITY
$$




USA.gov is the U.S. government's official web portal to all federal, state and local government web resources and services.